Regional Weather Roundup
Issued by NWS

Home | Current Version | Previous Version | Graphics & Text | Print | Product List | Glossary Off
Versions: 1 2 3 4 5 6 7 8 9 10 11 12 13 14 15 16 17 18 19 20 21 22 23 24 25 26 27 28 29 30 31 32 33 34 35 36 37 38 39 40 41 42 43 44 45 46 47 48 49 50

000
ASUS43 KLSX 062207
RWRMO

WEATHER SUMMARY FOR MISSOURI
NATIONAL WEATHER SERVICE SPRINGFIELD MO
500 PM CDT MON JUL 06 2015

NOTE: "FAIR" INDICATES FEW OR NO CLOUDS BELOW 12,000 FEET WITH NO
       SIGNIFICANT WEATHER AND/OR OBSTRUCTIONS TO VISIBILITY.
       CURRENT SKY AND/OR WEATHER CONDITIONS ARE NOT AVAILABLE FOR
       CHILLICOTHE AND FARMINGTON.

MOZ001>031-035>038-043-044-053-054-062300-
...NORTHERN AND WESTERN MISSOURI...

CITY           SKY/WX    TMP DP  RH WIND       PRES   REMARKS
KANSAS CTY INT TSTM      72  71  97 NW22G35   29.86R VSB 1
KANSAS C DTWN  TSTM      76  71  85 W15G44    29.84R
LEE`S SUMMIT   MOSUNNY   85  73  67 S10G22    29.85R HX  91
ST JOSEPH      CLOUDY    72  71  97 MISG      29.89R
CHILLICOTHE      N/A     75  72  90 VRB5      29.87R
KIRKSVILLE     LGT RAIN  80  73  79 S10       29.83F

$$
MOZ066>068-077>081-088>096-101>105-062300-
...SOUTHWEST MISSOURI...

CITY           SKY/WX    TMP DP  RH WIND       PRES   REMARKS
SPRINGFIELD    MOSUNNY   85  72  65 S18G26    29.90F HX  91
JOPLIN         MOSUNNY   86  74  67 S20       29.89F HX  94

$$
MOZ032>034-039>042-045>050-055>058-069>072-062300-
...CENTRAL MISSOURI...

CITY           SKY/WX    TMP DP  RH WIND       PRES   REMARKS
COLUMBIA       MOSUNNY   85  73  67 S15       29.86F HX  91
JEFFERSON CITY MOSUNNY   87  73  62 S10G20    29.85F HX  94
ROLLA          MOSUNNY   85  73  67 S14       29.91F HX  91
SEDALIA        MOSUNNY   87  74  64 S12G22    29.88F HX  95
WHITEMAN AFB   MOSUNNY   85  76  73 S12G22    29.85R HX  94
WARRENSBURG    MOSUNNY   84  72  65 S12G17    29.85R
OSAGE BEACH    MOSUNNY   88  72  58 S12G17    29.88F HX  94

$$
MOZ051-052-059>065-062300-
...EAST CENTRAL MISSOURI...

CITY           SKY/WX    TMP DP  RH WIND       PRES   REMARKS
ST LOUIS INTL  TSTM      79  70  73 SW10      29.93F
SPIRIT OF STL  PTSUNNY   81  73  76 S9        29.89F
ST CHARLES     CLOUDY    83  73  72 SE5       29.89F

$$
MOZ072>076-082>087-097>100-106>115-062300-
...SOUTH CENTRAL AND SOUTHEAST MISSOURI...

CITY           SKY/WX    TMP DP  RH WIND       PRES   REMARKS
CAPE GIRARDEAU MOSUNNY   85  76  74 S8        29.97F HX  94
FARMINGTON     CLOUDY    84  75  74 S10       30.00F HX  92
POPLAR BLUFF   PTSUNNY   84  75  74 S13       29.96F HX  92
WEST PLAINS    CLOUDY    83  70  64 S10       29.98F

$$



USA.gov is the U.S. government's official web portal to all federal, state and local government web resources and services.